Regional Weather Roundup
Issued by NWS Charleston, WV

Home | Current Version | Previous Version | Graphics & Text | Print | Product List | Glossary On
Versions: 1 2 3 4 5 6 7 8 9 10 11 12 13 14 15 16 17 18 19 20 21 22 23 24 25 26 27 28 29 30 31 32 33 34 35 36 37 38 39 40 41 42 43 44 45 46 47 48 49 50
000
ASUS41 KRLX 310910
RWRRLX
West Virginia Regional Weather Roundup
National Weather Service Charleston WV
400 AM EST SAT JAN 31 2015

Note: "fair" indicates few or no clouds below 12,000 feet with no
significant weather and/or obstructions to visibility.

WVZ003-311000-
Northern Panhandle of West Virginia

CITY           SKY/WX    TMP DP  RH WIND       PRES   REMARKS
WHEELING       PTCLDY     7   4  87 S5        30.35F WCI  -2
$$

WVZ009-311000-
Northwest West Virginia

CITY           SKY/WX    TMP DP  RH WIND       PRES   REMARKS
PARKERSBURG    CLEAR     10   7  87 CALM      30.43F FOG
$$

WVZ006-311000-
Western West Virginia

CITY           SKY/WX    TMP DP  RH WIND       PRES   REMARKS
HUNTINGTON     CLEAR     16  13  88 CALM      30.41F
$$

WVZ015-311000-
West Central West Virginia

CITY           SKY/WX    TMP DP  RH WIND       PRES   REMARKS
CHARLESTON     CLEAR     16  12  84 CALM      30.40F
$$

WVZ022-031-311000-
North Central West Virginia

CITY           SKY/WX    TMP DP  RH WIND       PRES   REMARKS
CLARKSBURG     CLEAR      9   6  88 CALM      30.37F
MORGANTOWN     CLEAR      9   2  73 CALM      30.36F
$$

WVZ025-035-042-045-311000-
Southern West Virginia

CITY           SKY/WX    TMP DP  RH WIND       PRES   REMARKS
BECKLEY          N/A     11   7  84 W5        30.28F WCI   3
LOGAN            N/A     18  12  79 CALM      30.34F
BLUEFIELD      CLEAR     13   8  81 W7        30.26F WCI   3
LEWISBURG      CLEAR     15   7  70 S6        30.26F WCI   7
$$

WVZ047-311000-
Northern Mountains of West Virginia

CITY           SKY/WX    TMP DP  RH WIND       PRES   REMARKS
ELKINS         CLEAR      5   4  95 CALM      30.31F
$$

WVZ052-311000-
Eastern Panhandle of West Virginia

CITY           SKY/WX    TMP DP  RH WIND       PRES   REMARKS
MARTINSBURG    CLEAR     17   2  51 NW15      30.30F WCI   2
PETERSBURG     CLEAR     18  -1  43 CALM      30.32F
$$


USA.gov is the U.S. government's official web portal to all federal, state and local government web resources and services.